Location: Koszewko
(53.2876°N, 14.9061°E)
Time: 22:37:27
(UTC+00:00)

USA 186 - Pass Details

Date: 03 March 2021
Orbit: 261 x 430 km, 96.9° (Epoch: 08 April)

Event Time Altitude Azimuth Distance (km) Brightness Sun altitude
Exits shadow 18:28:27 68° 180° (S) 321 1.0 -16.6°
Maximum altitude 18:28:43 85° 255° (WSW) 301 1.0 -16.6°
Drops below altitude 10° 18:31:14 10° 346° (NNW) 1,198 4.4 -17.0°
Sets 18:33:11 0° 347° (NNW) 2,064 5.6 -17.3°
